,,,PA_Meas_PMT16A,,PR_Meas_QMR101_102,,RH_Meas_QMH101,,SR_Meas_QMS101,,TA_Meas_QMH101,,GenWind,,GenWind,
date,time,status,PA,status,PR,status,RH,status,SR,status,TA,status,DirAvg,status,SpdAvg,
2012-03-08, 00:00:05,VALID,997.548,VALID,0,VALID,95.3855,VALID,0,VALID,22.3941,VALID,107,VALID,0,
2012-03-08, 00:01:05,VALID,997.534,VALID,0,VALID,95.3855,VALID,0,VALID,22.3941,VALID,107,VALID,0,
2012-03-08, 00:02:05,VALID,997.508,VALID,0,VALID,95.3855,VALID,0,VALID,22.3941,VALID,107,VALID,0,
2012-03-08, 00:03:05,VALID,997.516,VALID,0,VALID,95.3779,VALID,0,VALID,22.3746,VALID,107,VALID,0,
2012-03-08, 00:04:05,VALID,997.494,VALID,0,VALID,95.3855,VALID,0,VALID,22.3746,VALID,107,VALID,0,
2012-03-08, 00:05:05,VALID,997.48,VALID,0,VALID,95.3855,VALID,0,VALID,22.3763,VALID,107,VALID,0,
2012-03-08, 00:06:05,VALID,997.463,VALID,0,VALID,95.4084,VALID,0,VALID,22.3551,VALID,107,VALID,0,
2012-03-08, 00:07:05,VALID,997.454,VALID,0,VALID,95.4008,VALID,0,VALID,22.3551,VALID,107,VALID,0,
2012-03-08, 00:08:05,VALID,997.448,VALID,0,VALID,95.4008,VALID,0,VALID,22.3551,VALID,107,VALID,0,
2012-03-08, 00:09:05,VALID,997.447,VALID,0,VALID,95.3855,VALID,0,VALID,22.3551,VALID,107,VALID,0,
2012-03-08, 00:10:05,VALID,997.468,VALID,0,VALID,95.3779,VALID,0,VALID,22.3551,VALID,107,VALID,0,
2012-03-08, 00:11:05,VALID,997.414,VALID,0,VALID,95.3931,VALID,0,VALID,22.3746,VALID,107,VALID,0,
2012-03-08, 00:12:05,VALID,997.434,VALID,0,VALID,95.3855,VALID,0,VALID,22.3551,VALID,107,VALID,0.572266,
2012-03-08, 00:13:05,VALID,997.386,VALID,0,VALID,95.4008,VALID,0,VALID,22.3746,VALID,107,VALID,0.628906,
2012-03-08, 00:14:05,VALID,997.38,VALID,0,VALID,95.3931,VALID,0,VALID,22.3551,VALID,107,VALID,0.713672,
2012-03-08, 00:15:05,VALID,997.38,VALID,0,VALID,95.3931,VALID,0,VALID,22.3746,VALID,107,VALID,0.687891,
2012-03-08, 00:16:05,VALID,997.342,VALID,0,VALID,95.4084,VALID,0,VALID,22.3746,VALID,107,VALID,0.673437,
2012-03-08, 00:17:05,VALID,997.322,VALID,0,VALID,95.3931,VALID,0,VALID,22.3958,VALID,107,VALID,0.583984,
2012-03-08, 00:18:05,VALID,997.294,VALID,0,VALID,95.4008,VALID,0,VALID,22.3746,VALID,107,VALID,0.502344,
2012-03-08, 00:19:05,VALID,997.257,VALID,0,VALID,95.3931,VALID,0,VALID,22.3941,VALID,107,VALID,0.640234,
2012-03-08, 00:20:05,VALID,997.247,VALID,0,VALID,95.3779,VALID,0,VALID,22.3729,VALID,107,VALID,0.379687,
2012-03-08, 00:21:05,VALID,997.217,VALID,0,VALID,95.3931,VALID,0,VALID,22.3941,VALID,107,VALID,0.405078,
2012-03-08, 00:22:05,VALID,997.219,VALID,0,VALID,95.3779,VALID,0,VALID,22.3729,VALID,107,VALID,0.366016,
2012-03-08, 00:23:05,VALID,997.174,VALID,0,VALID,95.3855,VALID,0,VALID,22.3941,VALID,107,VALID,0.506641,
2012-03-08, 00:24:05,VALID,997.135,VALID,0,VALID,95.4084,VALID,0,VALID,22.4136,VALID,107,VALID,0.355859,
2012-03-08, 00:25:05,VALID,997.162,VALID,0,VALID,95.3855,VALID,0,VALID,22.4136,VALID,107,VALID,0.229687,
2012-03-08, 00:26:05,VALID,997.149,VALID,0,VALID,95.4008,VALID,0,VALID,22.3924,VALID,107,VALID,0.108594,
2012-03-08, 00:27:05,VALID,997.121,VALID,0,VALID,95.3779,VALID,0,VALID,22.3941,VALID,107,VALID,0,
2012-03-08, 00:28:05,VALID,997.144,VALID,0,VALID,95.3855,VALID,0,VALID,22.4136,VALID,107,VALID,0,
2012-03-08, 00:29:05,VALID,997.121,VALID,0,VALID,95.3779,VALID,0,VALID,22.4136,VALID,107,VALID,0,
2012-03-08, 00:30:05,VALID,997.148,VALID,0,VALID,95.4008,VALID,0,VALID,22.4136,VALID,107,VALID,0.377344,
2012-03-08, 00:31:05,VALID,997.13,VALID,0,VALID,95.4084,VALID,0,VALID,22.3924,VALID,107,VALID,0.498437,
2012-03-08, 00:32:05,VALID,997.133,VALID,0,VALID,95.3855,VALID,0,VALID,22.3729,VALID,107,VALID,0.533594,
2012-03-08, 00:33:05,VALID,997.143,VALID,0,VALID,95.4084,VALID,0,VALID,22.3729,VALID,107,VALID,0.438281,
2012-03-08, 00:34:05,VALID,997.111,VALID,0,VALID,95.4008,VALID,0,VALID,22.3534,VALID,107,VALID,0.414453,
2012-03-08, 00:35:05,VALID,997.132,VALID,0,VALID,95.416,VALID,0,VALID,22.3534,VALID,107,VALID,0.483203,
2012-03-08, 00:36:05,VALID,997.079,VALID,0,VALID,95.4313,VALID,0,VALID,22.3551,VALID,93,VALID,0.653125,
2012-03-08, 00:37:05,VALID,997.092,VALID,0,VALID,95.4237,VALID,0,VALID,22.3339,VALID,93,VALID,0.798437,
2012-03-08, 00:38:05,VALID,997.091,VALID,0,VALID,95.416,VALID,0,VALID,22.3144,VALID,93,VALID,0.668359,
2012-03-08, 00:39:05,VALID,997.07,VALID,0,VALID,95.4237,VALID,0,VALID,22.3144,VALID,94,VALID,0.583203,
2012-03-08, 00:40:05,VALID,997.055,VALID,0,VALID,95.4008,VALID,0,VALID,22.3356,VALID,94,VALID,0.172266,
2012-03-08, 00:41:05,VALID,997.025,VALID,0,VALID,95.4389,VALID,0,VALID,22.2966,VALID,94,VALID,0,
2012-03-08, 00:42:05,VALID,996.991,VALID,0,VALID,95.4313,VALID,0,VALID,22.2966,VALID,94,VALID,0.00078125,
2012-03-08, 00:43:05,VALID,996.935,VALID,0,VALID,95.4389,VALID,0,VALID,22.2966,VALID,94,VALID,0,
2012-03-08, 00:44:05,VALID,996.93,VALID,0,VALID,95.4389,VALID,0,VALID,22.2771,VALID,94,VALID,0,
2012-03-08, 00:45:05,VALID,996.896,VALID,0,VALID,95.416,VALID,0,VALID,22.2576,VALID,94,VALID,0.028125,
2012-03-08, 00:46:05,VALID,996.874,VALID,0,VALID,95.4313,VALID,0,VALID,22.2576,VALID,94,VALID,0,
2012-03-08, 00:47:05,VALID,996.841,VALID,0,VALID,95.4237,VALID,0,VALID,22.2576,VALID,94,VALID,0,
2012-03-08, 00:48:05,VALID,996.832,VALID,0,VALID,95.4389,VALID,0,VALID,22.2576,VALID,94,VALID,0,
2012-03-08, 00:49:05,VALID,996.835,VALID,0,VALID,95.4389,VALID,0,VALID,22.2169,VALID,94,VALID,0.226563,
2012-03-08, 00:50:05,VALID,996.815,VALID,0,VALID,95.416,VALID,0,VALID,22.2576,VALID,94,VALID,0.00429688,
2012-03-08, 00:51:05,VALID,996.828,VALID,0,VALID,95.4313,VALID,0,VALID,22.2381,VALID,94,VALID,0.0105469,
2012-03-08, 00:52:05,VALID,996.824,VALID,0,VALID,95.4542,VALID,0,VALID,22.2381,VALID,94,VALID,0,
2012-03-08, 00:53:05,VALID,996.784,VALID,0,VALID,95.416,VALID,0,VALID,22.2381,VALID,94,VALID,0,
2012-03-08, 00:54:05,VALID,996.794,VALID,0,VALID,95.4313,VALID,0,VALID,22.2186,VALID,94,VALID,0,
2012-03-08, 00:55:05,VALID,996.792,VALID,0,VALID,95.416,VALID,0,VALID,22.2186,VALID,94,VALID,0,
2012-03-08, 00:56:05,VALID,996.751,VALID,0,VALID,95.4389,VALID,0,VALID,22.1974,VALID,94,VALID,0,
2012-03-08, 00:57:05,VALID,996.746,VALID,0,VALID,95.4389,VALID,0,VALID,22.2186,VALID,94,VALID,0.312891,
2012-03-08, 00:58:05,VALID,996.754,VALID,0,VALID,95.416,VALID,0,VALID,22.2186,VALID,94,VALID,0.446484,
2012-03-08, 00:59:05,VALID,996.744,VALID,0,VALID,95.4313,VALID,0,VALID,22.2169,VALID,94,VALID,0.601563,
2012-03-08, 01:00:05,VALID,996.754,VALID,0,VALID,95.4084,VALID,0,VALID,22.2186,VALID,94,VALID,0.742969,
2012-03-08, 01:01:05,VALID,996.778,VALID,0,VALID,95.4313,VALID,0,VALID,22.2186,VALID,93,VALID,0.944141,
2012-03-08, 01:02:05,VALID,996.753,VALID,0,VALID,95.4465,VALID,0,VALID,22.2186,VALID,100,VALID,0.803906,
2012-03-08, 01:03:05,VALID,996.747,VALID,0,VALID,95.4084,VALID,0,VALID,22.199,VALID,100,VALID,0.544531,
2012-03-08, 01:04:05,VALID,996.714,VALID,0,VALID,95.4237,VALID,0,VALID,22.199,VALID,100,VALID,0.296875,
2012-03-08, 01:05:05,VALID,996.711,VALID,0,VALID,95.4313,VALID,0,VALID,22.199,VALID,100,VALID,0.0851562,
2012-03-08, 01:06:05,VALID,996.693,VALID,0,VALID,95.3931,VALID,0,VALID,22.1795,VALID,100,VALID,0,
2012-03-08, 01:07:05,VALID,996.706,VALID,0,VALID,95.4084,VALID,0,VALID,22.1795,VALID,100,VALID,0,
2012-03-08, 01:08:05,VALID,996.715,VALID,0,VALID,95.416,VALID,0,VALID,22.16,VALID,100,VALID,0,
2012-03-08, 01:09:05,VALID,996.725,VALID,0,VALID,95.4237,VALID,0,VALID,22.1795,VALID,100,VALID,0,
2012-03-08, 01:10:05,VALID,996.716,VALID,0,VALID,95.4313,VALID,0,VALID,22.1812,VALID,100,VALID,0,
2012-03-08, 01:11:05,VALID,996.711,VALID,0,VALID,95.416,VALID,0,VALID,22.1795,VALID,100,VALID,0.178125,
2012-03-08, 01:12:05,VALID,996.716,VALID,0,VALID,95.4313,VALID,0,VALID,22.16,VALID,100,VALID,0.421875,
2012-03-08, 01:13:05,VALID,996.704,VALID,0,VALID,95.4084,VALID,0,VALID,22.1795,VALID,100,VALID,0.660547,
2012-03-08, 01:14:05,VALID,996.714,VALID,0,VALID,95.4313,VALID,0,VALID,22.16,VALID,100,VALID,0.672266,
2012-03-08, 01:15:05,VALID,996.713,VALID,0,VALID,95.4313,VALID,0,VALID,22.16,VALID,100,VALID,0.169922,
2012-03-08, 01:16:05,VALID,996.682,VALID,0,VALID,95.4237,VALID,0.104696,VALID,22.16,VALID,100,VALID,0.00546875,
2012-03-08, 01:17:05,VALID,996.68,VALID,0,VALID,95.4084,VALID,0,VALID,22.16,VALID,100,VALID,0,
2012-03-08, 01:18:05,VALID,996.679,VALID,0,VALID,95.416,VALID,0,VALID,22.16,VALID,100,VALID,0,
2012-03-08, 01:19:05,VALID,996.645,VALID,0,VALID,95.4008,VALID,0,VALID,22.1584,VALID,100,VALID,0,
2012-03-08, 01:20:05,VALID,996.66,VALID,0,VALID,95.4237,VALID,0,VALID,22.1405,VALID,100,VALID,0,
2012-03-08, 01:21:05,VALID,996.651,VALID,0,VALID,95.416,VALID,0,VALID,22.1405,VALID,100,VALID,0,
2012-03-08, 01:22:05,VALID,996.62,VALID,0,VALID,95.4084,VALID,0,VALID,22.121,VALID,100,VALID,0,
2012-03-08, 01:23:05,VALID,996.592,VALID,0,VALID,95.4237,VALID,0,VALID,22.1015,VALID,100,VALID,0,
2012-03-08, 01:24:05,VALID,996.575,VALID,0,VALID,95.416,VALID,0,VALID,22.082,VALID,100,VALID,0,
2012-03-08, 01:25:05,VALID,996.546,VALID,0,VALID,95.416,VALID,0,VALID,22.082,VALID,100,VALID,0,
2012-03-08, 01:26:05,VALID,996.556,VALID,0,VALID,95.4465,VALID,0,VALID,22.0625,VALID,100,VALID,0,
2012-03-08, 01:27:05,VALID,996.547,VALID,0,VALID,95.4237,VALID,0,VALID,22.082,VALID,100,VALID,0,
2012-03-08, 01:28:05,VALID,996.556,VALID,0,VALID,95.4313,VALID,0,VALID,22.082,VALID,100,VALID,0,
2012-03-08, 01:29:05,VALID,996.538,VALID,0,VALID,95.4313,VALID,0,VALID,22.0625,VALID,100,VALID,0,
2012-03-08, 01:30:05,VALID,996.517,VALID,0,VALID,95.4237,VALID,0,VALID,22.0625,VALID,100,VALID,0,
2012-03-08, 01:31:05,VALID,996.536,VALID,0,VALID,95.4313,VALID,0,VALID,22.0413,VALID,100,VALID,0,
2012-03-08, 01:32:05,VALID,996.495,VALID,0,VALID,95.4465,VALID,0,VALID,22.043,VALID,100,VALID,0,
2012-03-08, 01:33:05,VALID,996.478,VALID,0,VALID,95.4465,VALID,0,VALID,22.0235,VALID,100,VALID,0,
2012-03-08, 01:34:05,VALID,996.474,VALID,0,VALID,95.4465,VALID,0,VALID,22.0023,VALID,100,VALID,0,
2012-03-08, 01:35:05,VALID,996.438,VALID,0,VALID,95.4313,VALID,0,VALID,22.0235,VALID,100,VALID,0,
2012-03-08, 01:36:05,VALID,996.434,VALID,0,VALID,95.4465,VALID,0,VALID,22.043,VALID,100,VALID,0,
2012-03-08, 01:37:05,VALID,996.45,VALID,0,VALID,95.4465,VALID,0,VALID,22.0235,VALID,100,VALID,0,
2012-03-08, 01:38:05,VALID,996.421,VALID,0,VALID,95.4465,VALID,0,VALID,22.0235,VALID,100,VALID,0,
2012-03-08, 01:39:05,VALID,996.452,VALID,0,VALID,95.4465,VALID,0,VALID,22.043,VALID,100,VALID,0,
2012-03-08, 01:40:05,VALID,996.416,VALID,0,VALID,95.4313,VALID,0,VALID,22.0625,VALID,100,VALID,0,
2012-03-08, 01:41:05,VALID,996.378,VALID,0,VALID,95.4237,VALID,0,VALID,22.0413,VALID,100,VALID,0.117188,
2012-03-08, 01:42:05,VALID,996.394,VALID,0,VALID,95.4465,VALID,0,VALID,22.0413,VALID,100,VALID,0.515234,
2012-03-08, 01:43:05,VALID,996.375,VALID,0,VALID,95.4465,VALID,0,VALID,22.043,VALID,100,VALID,0.565234,
2012-03-08, 01:44:05,VALID,996.368,VALID,0,VALID,95.4389,VALID,0,VALID,22.043,VALID,100,VALID,0.612891,
2012-03-08, 01:45:05,VALID,996.349,VALID,0,VALID,95.4618,VALID,0,VALID,22.0023,VALID,100,VALID,0.769141,
2012-03-08, 01:46:05,VALID,996.359,VALID,0,VALID,95.4694,VALID,0,VALID,22.0023,VALID,100,VALID,0.784766,
2012-03-08, 01:47:05,VALID,996.331,VALID,0,VALID,95.4465,VALID,0,VALID,22.0235,VALID,100,VALID,0.778125,
2012-03-08, 01:48:05,VALID,996.31,VALID,0,VALID,95.4465,VALID,0,VALID,22.043,VALID,100,VALID,0.758594,
2012-03-08, 01:49:05,VALID,996.269,VALID,0,VALID,95.4618,VALID,0,VALID,22.0235,VALID,100,VALID,0.739844,
2012-03-08, 01:50:05,VALID,996.266,VALID,0,VALID,95.4465,VALID,0,VALID,22.0235,VALID,114,VALID,0.733594,
2012-03-08, 01:51:05,VALID,996.24,VALID,0,VALID,95.4542,VALID,0,VALID,22.0023,VALID,126,VALID,1.06875,
2012-03-08, 01:52:05,VALID,996.221,VALID,0,VALID,95.4465,VALID,0,VALID,22.0235,VALID,127,VALID,0.714063,
2012-03-08, 01:53:05,VALID,996.193,VALID,0,VALID,95.4389,VALID,0,VALID,22.043,VALID,127,VALID,0.75625,
2012-03-08, 01:54:05,VALID,996.2,VALID,0,VALID,95.4465,VALID,0,VALID,22.0218,VALID,127,VALID,0.657812,
2012-03-08, 01:55:05,VALID,996.178,VALID,0,VALID,95.4389,VALID,0,VALID,22.043,VALID,127,VALID,0.650781,
2012-03-08, 01:56:05,VALID,996.215,VALID,0,VALID,95.4465,VALID,0,VALID,22.043,VALID,127,VALID,0.661328,
2012-03-08, 01:57:05,VALID,996.163,VALID,0,VALID,95.4313,VALID,0,VALID,22.043,VALID,127,VALID,0.741406,
2012-03-08, 01:58:05,VALID,996.166,VALID,0,VALID,95.4313,VALID,0,VALID,22.0625,VALID,127,VALID,0.671484,
2012-03-08, 01:59:05,VALID,996.154,VALID,0,VALID,95.4389,VALID,0,VALID,22.0625,VALID,125,VALID,0.7125,
2012-03-08, 02:00:05,VALID,996.138,VALID,0,VALID,95.4237,VALID,0,VALID,22.043,VALID,123,VALID,0.622266,
2012-03-08, 02:01:05,VALID,996.138,VALID,0,VALID,95.4237,VALID,0,VALID,22.043,VALID,114,VALID,0.911328,
2012-03-08, 02:02:05,VALID,996.151,VALID,0,VALID,95.4389,VALID,0,VALID,22.043,VALID,113,VALID,0.89375,
2012-03-08, 02:03:05,VALID,996.163,VALID,0,VALID,95.4542,VALID,0,VALID,22.0023,VALID,113,VALID,0.682031,
2012-03-08, 02:04:05,VALID,996.144,VALID,0,VALID,95.4465,VALID,0,VALID,22.043,VALID,113,VALID,0.578516,
2012-03-08, 02:05:05,VALID,996.146,VALID,0,VALID,95.4237,VALID,0,VALID,22.043,VALID,113,VALID,0.508594,
2012-03-08, 02:06:05,VALID,996.152,VALID,0,VALID,95.4313,VALID,0,VALID,22.043,VALID,113,VALID,0.401953,
2012-03-08, 02:07:05,VALID,996.144,VALID,0,VALID,95.4389,VALID,0,VALID,22.0625,VALID,113,VALID,0,
2012-03-08, 02:08:05,VALID,996.125,VALID,0,VALID,95.4237,VALID,0,VALID,22.043,VALID,113,VALID,0,
2012-03-08, 02:09:05,VALID,996.143,VALID,0,VALID,95.4237,VALID,0,VALID,22.043,VALID,113,VALID,0.0761719,
2012-03-08, 02:10:05,VALID,996.109,VALID,0,VALID,95.416,VALID,0,VALID,22.043,VALID,113,VALID,0.552734,
2012-03-08, 02:11:05,VALID,996.106,VALID,0,VALID,95.4084,VALID,0,VALID,22.0235,VALID,105,VALID,0.674609,
2012-03-08, 02:12:05,VALID,996.072,VALID,0,VALID,95.4008,VALID,0,VALID,22.0235,VALID,104,VALID,0.660156,
2012-03-08, 02:13:05,VALID,996.086,VALID,0,VALID,95.4237,VALID,0,VALID,22.004,VALID,103,VALID,0.652344,
2012-03-08, 02:14:05,VALID,996.094,VALID,0,VALID,95.3931,VALID,0,VALID,22.004,VALID,103,VALID,0.609766,
2012-03-08, 02:15:04,VALID,996.04,VALID,0,VALID,95.3703,VALID,0,VALID,22.004,VALID,103,VALID,0.417969,
2012-03-08, 02:16:04,VALID,996.06,VALID,0,VALID,95.3855,VALID,0,VALID,22.0235,VALID,103,VALID,0.516406,
2012-03-08, 02:17:04,VALID,996.04,VALID,0,VALID,95.3855,VALID,0,VALID,21.9845,VALID,103,VALID,0.439063,
2012-03-08, 02:18:04,VALID,996.009,VALID,0,VALID,95.3626,VALID,0,VALID,21.9845,VALID,103,VALID,0.247266,
2012-03-08, 02:19:04,VALID,996.043,VALID,0,VALID,95.3703,VALID,0,VALID,22.004,VALID,103,VALID,0,
2012-03-08, 02:20:04,VALID,996.017,VALID,0,VALID,95.3626,VALID,0,VALID,21.9845,VALID,103,VALID,0,
2012-03-08, 02:21:04,VALID,996.007,VALID,0,VALID,95.3703,VALID,0,VALID,21.9633,VALID,103,VALID,0,
2012-03-08, 02:22:04,VALID,995.977,VALID,0,VALID,95.3474,VALID,0,VALID,21.9845,VALID,103,VALID,0,
2012-03-08, 02:23:04,VALID,995.995,VALID,0,VALID,95.355,VALID,0,VALID,21.9845,VALID,103,VALID,0,
2012-03-08, 02:24:04,VALID,995.971,VALID,0,VALID,95.3703,VALID,0,VALID,21.9438,VALID,103,VALID,0,
2012-03-08, 02:25:04,VALID,995.947,VALID,0,VALID,95.3931,VALID,0,VALID,21.9845,VALID,103,VALID,0,
2012-03-08, 02:26:04,VALID,995.885,VALID,0,VALID,95.3931,VALID,0,VALID,21.9633,VALID,103,VALID,0,
2012-03-08, 02:27:04,VALID,995.883,VALID,0,VALID,95.3855,VALID,0,VALID,21.9845,VALID,103,VALID,0,
2012-03-08, 02:28:04,VALID,995.846,VALID,0,VALID,95.3855,VALID,0,VALID,21.9828,VALID,104,VALID,0,
2012-03-08, 02:29:04,VALID,995.826,VALID,0,VALID,95.3779,VALID,0,VALID,22.004,VALID,105,VALID,0.636328,
2012-03-08, 02:30:04,VALID,995.816,VALID,0,VALID,95.3779,VALID,0,VALID,22.004,VALID,128,VALID,0.874219,
2012-03-08, 02:31:04,VALID,995.772,VALID,0,VALID,95.4008,VALID,0,VALID,22.004,VALID,128,VALID,0.815234,
2012-03-08, 02:32:04,VALID,995.799,VALID,0,VALID,95.3779,VALID,0,VALID,22.0023,VALID,125,VALID,0.699219,
2012-03-08, 02:33:04,VALID,995.797,VALID,0,VALID,95.3703,VALID,0,VALID,22.0235,VALID,125,VALID,0.641016,
2012-03-08, 02:34:04,VALID,995.803,VALID,0,VALID,95.3703,VALID,0.104696,VALID,22.0235,VALID,125,VALID,0.672266,
2012-03-08, 02:35:04,VALID,995.802,VALID,0,VALID,95.3779,VALID,0,VALID,22.0235,VALID,125,VALID,0.552344,
2012-03-08, 02:36:04,VALID,995.8,VALID,0,VALID,95.3855,VALID,0,VALID,22.0023,VALID,125,VALID,0.584766,
2012-03-08, 02:37:04,VALID,995.762,VALID,0,VALID,95.3931,VALID,0,VALID,22.0218,VALID,125,VALID,0.521484,
2012-03-08, 02:38:04,VALID,995.771,VALID,0,VALID,95.3931,VALID,0,VALID,22.043,VALID,125,VALID,0.366797,
2012-03-08, 02:39:04,VALID,995.769,VALID,0,VALID,95.3855,VALID,0,VALID,22.043,VALID,125,VALID,0.229687,
2012-03-08, 02:40:04,VALID,995.763,VALID,0,VALID,95.3931,VALID,0,VALID,22.043,VALID,125,VALID,0.525781,
2012-03-08, 02:41:04,VALID,995.767,VALID,0,VALID,95.3779,VALID,0,VALID,22.043,VALID,125,VALID,0.446484,
2012-03-08, 02:42:04,VALID,995.775,VALID,0,VALID,95.3931,VALID,0,VALID,22.043,VALID,125,VALID,0.504687,
2012-03-08, 02:43:04,VALID,995.771,VALID,0,VALID,95.3855,VALID,0,VALID,22.043,VALID,125,VALID,0.501172,
2012-03-08, 02:44:04,VALID,995.761,VALID,0,VALID,95.3779,VALID,0,VALID,22.0625,VALID,125,VALID,0.489453,
2012-03-08, 02:45:04,VALID,995.74,VALID,0,VALID,95.3626,VALID,0,VALID,22.0625,VALID,125,VALID,0.576172,
2012-03-08, 02:46:04,VALID,995.739,VALID,0,VALID,95.355,VALID,0,VALID,22.0625,VALID,123,VALID,0.768359,
2012-03-08, 02:47:04,VALID,995.709,VALID,0,VALID,95.3779,VALID,0,VALID,22.0625,VALID,123,VALID,0.659766,
2012-03-08, 02:48:04,VALID,995.697,VALID,0,VALID,95.3779,VALID,0,VALID,22.0625,VALID,123,VALID,0.673047,
2012-03-08, 02:49:04,VALID,995.704,VALID,0,VALID,95.3779,VALID,0,VALID,22.0625,VALID,123,VALID,0.744922,
2012-03-08, 02:50:04,VALID,995.695,VALID,0,VALID,95.3855,VALID,0,VALID,22.082,VALID,123,VALID,0.460156,
2012-03-08, 02:51:04,VALID,995.683,VALID,0,VALID,95.4008,VALID,0,VALID,22.0625,VALID,123,VALID,0.463672,
2012-03-08, 02:52:04,VALID,995.622,VALID,0,VALID,95.3779,VALID,0,VALID,22.0625,VALID,123,VALID,0.314063,
2012-03-08, 02:53:04,VALID,995.614,VALID,0,VALID,95.3855,VALID,0,VALID,22.0625,VALID,123,VALID,0.13125,
2012-03-08, 02:54:04,VALID,995.626,VALID,0,VALID,95.3703,VALID,0,VALID,22.0625,VALID,123,VALID,0,
2012-03-08, 02:55:04,VALID,995.62,VALID,0,VALID,95.3779,VALID,0,VALID,22.0413,VALID,123,VALID,0.130859,
2012-03-08, 02:56:04,VALID,995.626,VALID,0,VALID,95.3779,VALID,0,VALID,22.043,VALID,123,VALID,0.339453,
2012-03-08, 02:57:04,VALID,995.633,VALID,0,VALID,95.4008,VALID,0,VALID,22.0625,VALID,123,VALID,0,
2012-03-08, 02:58:04,VALID,995.601,VALID,0,VALID,95.3855,VALID,0,VALID,22.0218,VALID,123,VALID,0,
2012-03-08, 02:59:04,VALID,995.585,VALID,0,VALID,95.3703,VALID,0,VALID,22.043,VALID,123,VALID,0,
2012-03-08, 03:00:04,VALID,995.599,VALID,0,VALID,95.3703,VALID,0,VALID,22.0235,VALID,123,VALID,0,
2012-03-08, 03:01:04,VALID,995.591,VALID,0,VALID,95.3703,VALID,0,VALID,22.0235,VALID,123,VALID,0,
2012-03-08, 03:02:04,VALID,995.555,VALID,0,VALID,95.3626,VALID,0,VALID,22.043,VALID,123,VALID,0,
2012-03-08, 03:03:04,VALID,995.557,VALID,0,VALID,95.3626,VALID,0,VALID,22.043,VALID,123,VALID,0,
2012-03-08, 03:04:04,VALID,995.545,VALID,0,VALID,95.3626,VALID,0,VALID,22.043,VALID,123,VALID,0,
2012-03-08, 03:05:04,VALID,995.534,VALID,0,VALID,95.3474,VALID,0,VALID,22.043,VALID,123,VALID,0.0160156,
2012-03-08, 03:06:04,VALID,995.53,VALID,0,VALID,95.3321,VALID,0,VALID,22.0235,VALID,123,VALID,0.454688,
2012-03-08, 03:07:04,VALID,995.531,VALID,0,VALID,95.3245,VALID,0,VALID,22.0235,VALID,123,VALID,0.377344,
2012-03-08, 03:08:04,VALID,995.508,VALID,0,VALID,95.3168,VALID,0,VALID,22.0235,VALID,123,VALID,0.361719,
2012-03-08, 03:09:04,VALID,995.53,VALID,0,VALID,95.2863,VALID,0,VALID,22.043,VALID,123,VALID,0.291797,
2012-03-08, 03:10:04,VALID,995.542,VALID,0,VALID,95.3092,VALID,0,VALID,22.0235,VALID,112,VALID,0.395312,
2012-03-08, 03:11:04,VALID,995.547,VALID,0,VALID,95.3092,VALID,0,VALID,22.0235,VALID,111,VALID,0.467578,
2012-03-08, 03:12:04,VALID,995.548,VALID,0,VALID,95.3092,VALID,0,VALID,22.0235,VALID,96,VALID,0.586719,
2012-03-08, 03:13:04,VALID,995.59,VALID,0,VALID,95.3016,VALID,0,VALID,21.9845,VALID,96,VALID,0.756641,
2012-03-08, 03:14:04,VALID,995.582,VALID,0,VALID,95.3245,VALID,0,VALID,21.965,VALID,96,VALID,0.816797,
2012-03-08, 03:15:04,VALID,995.551,VALID,0,VALID,95.3321,VALID,0,VALID,21.9455,VALID,96,VALID,0.667578,
2012-03-08, 03:16:04,VALID,995.559,VALID,0,VALID,95.3474,VALID,0,VALID,21.9455,VALID,96,VALID,0.777344,
2012-03-08, 03:17:04,VALID,995.525,VALID,0,VALID,95.3397,VALID,0,VALID,21.926,VALID,55,VALID,0.975781,
2012-03-08, 03:18:04,VALID,995.522,VALID,0,VALID,95.3626,VALID,0,VALID,21.9065,VALID,26,VALID,0.998438,
2012-03-08, 03:19:04,VALID,995.506,VALID,0,VALID,95.3474,VALID,0,VALID,21.887,VALID,26,VALID,1.06914,
2012-03-08, 03:20:04,VALID,995.504,VALID,0,VALID,95.3626,VALID,0,VALID,21.8675,VALID,19,VALID,1.16719,
2012-03-08, 03:21:04,VALID,995.512,VALID,0,VALID,95.3855,VALID,0,VALID,21.887,VALID,17,VALID,1.06719,
2012-03-08, 03:22:04,VALID,995.485,VALID,0,VALID,95.4008,VALID,0,VALID,21.887,VALID,17,VALID,1.02148,
2012-03-08, 03:23:04,VALID,995.474,VALID,0,VALID,95.4008,VALID,0,VALID,21.8675,VALID,17,VALID,1.00078,
2012-03-08, 03:24:04,VALID,995.481,VALID,0,VALID,95.3931,VALID,0,VALID,21.8675,VALID,17,VALID,0.880078,
2012-03-08, 03:25:04,VALID,995.493,VALID,0,VALID,95.4084,VALID,0,VALID,21.887,VALID,17,VALID,0.791016,
2012-03-08, 03:26:04,VALID,995.494,VALID,0,VALID,95.3855,VALID,0,VALID,21.8675,VALID,17,VALID,0.728516,
2012-03-08, 03:27:04,VALID,995.498,VALID,0,VALID,95.4084,VALID,0,VALID,21.8675,VALID,17,VALID,0.758984,
2012-03-08, 03:28:04,VALID,995.494,VALID,0,VALID,95.4237,VALID,0,VALID,21.8675,VALID,22,VALID,0.841016,
2012-03-08, 03:29:04,VALID,995.471,VALID,0,VALID,95.4084,VALID,0,VALID,21.8675,VALID,28,VALID,0.796484,
2012-03-08, 03:30:04,VALID,995.499,VALID,0,VALID,95.4084,VALID,0,VALID,21.848,VALID,30,VALID,0.642187,
2012-03-08, 03:31:04,VALID,995.498,VALID,0,VALID,95.416,VALID,0,VALID,21.8285,VALID,33,VALID,0.603516,
2012-03-08, 03:32:04,VALID,995.476,VALID,0,VALID,95.4084,VALID,0,VALID,21.8285,VALID,60,VALID,0.745313,
2012-03-08, 03:33:04,VALID,995.471,VALID,0,VALID,95.416,VALID,0,VALID,21.848,VALID,60,VALID,0.692969,
2012-03-08, 03:34:04,VALID,995.49,VALID,0,VALID,95.4237,VALID,0,VALID,21.848,VALID,60,VALID,0.611328,
2012-03-08, 03:35:04,VALID,995.483,VALID,0,VALID,95.4389,VALID,0,VALID,21.848,VALID,60,VALID,0.531641,
2012-03-08, 03:36:04,VALID,995.514,VALID,0,VALID,95.4084,VALID,0,VALID,21.8073,VALID,60,VALID,0.667188,
2012-03-08, 03:37:04,VALID,995.505,VALID,0,VALID,95.4237,VALID,0,VALID,21.8285,VALID,60,VALID,0.746484,
2012-03-08, 03:38:04,VALID,995.51,VALID,0,VALID,95.4465,VALID,0,VALID,21.8073,VALID,60,VALID,0.726172,
2012-03-08, 03:39:04,VALID,995.523,VALID,0,VALID,95.4389,VALID,0,VALID,21.8285,VALID,60,VALID,0.698047,
2012-03-08, 03:40:04,VALID,995.542,VALID,0,VALID,95.4237,VALID,0,VALID,21.8285,VALID,60,VALID,0.639453,
2012-03-08, 03:41:04,VALID,995.532,VALID,0,VALID,95.4313,VALID,0,VALID,21.8692,VALID,60,VALID,0.714453,
2012-03-08, 03:42:04,VALID,995.51,VALID,0,VALID,95.4389,VALID,0,VALID,21.848,VALID,60,VALID,0.836719,
2012-03-08, 03:43:04,VALID,995.518,VALID,0,VALID,95.4465,VALID,0,VALID,21.848,VALID,60,VALID,0.769922,
2012-03-08, 03:44:04,VALID,995.513,VALID,0,VALID,95.4542,VALID,0,VALID,21.8675,VALID,60,VALID,0.588672,
2012-03-08, 03:45:04,VALID,995.523,VALID,0,VALID,95.4313,VALID,0,VALID,21.8675,VALID,60,VALID,0.446875,
2012-03-08, 03:46:04,VALID,995.518,VALID,0,VALID,95.4465,VALID,0,VALID,21.887,VALID,60,VALID,0.225391,
2012-03-08, 03:47:04,VALID,995.536,VALID,0,VALID,95.4618,VALID,0,VALID,21.8887,VALID,60,VALID,0.280859,
2012-03-08, 03:48:04,VALID,995.55,VALID,0,VALID,95.4465,VALID,0,VALID,21.887,VALID,60,VALID,0.50625,
2012-03-08, 03:49:04,VALID,995.581,VALID,0,VALID,95.4465,VALID,0,VALID,21.8658,VALID,60,VALID,0.474609,
2012-03-08, 03:50:04,VALID,995.58,VALID,0,VALID,95.4313,VALID,0,VALID,21.887,VALID,60,VALID,0.368359,